PROGRESS-MS 33

Last updated on Sun Jun 21 2026 00:02:11 GMT+0000 (Coordinated Universal Time)

1 68319U 26058A 26171.41461525 .00008813 00000+0 16600-3 0 9998 2 68319 51.6327 284.1189 0004557 208.5194 151.5545 15.49333088572134
UTC large
Height (km)
Speed (km/s)
/
Latitude / Longitude
Inclination (degrees)
Orbital Period (minutes)
Azimuth
Elevation
Range (km)
Doppler Factor

Next 0 passes for location: London (51.5072 / 0.1276)

No passes found over London.
PROGRESS-MS 33